FFM2704 WMKP-WMKL

Flight info

Callsign FFM2704
Flight time N/A
Altitude 10000
Route OMBOK DCT KAPKO KAPKO1E
Aircraft B738/M-SDE2E3FGHIRWXY/LB1

Departure

Time 2026-04-23 12:38
Airport Penang International Airport (WMKP)

Arrival

Time N/A
Airport Langkawi International Airport (WMKL)
Time Latitude Longitude Altitude Speed Heading
2026-04-23 11:47 5.29250 100.26672 22 ft 0 kts 311°
2026-04-23 12:15 5.29248 100.26673 22 ft 2 kts 311°
2026-04-23 12:15 5.29237 100.26687 5 ft 4 kts 307°
2026-04-23 12:15 5.29222 100.26709 32 ft 4 kts 297°
2026-04-23 12:15 5.29213 100.26734 24 ft 4 kts 274°
2026-04-23 12:16 5.29217 100.26754 27 ft 2 kts 222°
2026-04-23 12:16 5.29222 100.26758 27 ft 0 kts 221°
2026-04-23 12:26 5.29214 100.26751 24 ft 3 kts 225°
2026-04-23 12:26 5.29195 100.26735 24 ft 4 kts 221°
2026-04-23 12:27 5.29176 100.26718 22 ft 4 kts 221°
2026-04-23 12:27 5.29156 100.26701 22 ft 4 kts 221°
2026-04-23 12:27 5.29137 100.26684 22 ft 4 kts 221°
2026-04-23 12:27 5.29118 100.26668 22 ft 4 kts 221°
2026-04-23 12:28 5.29096 100.26648 22 ft 5 kts 221°
2026-04-23 12:28 5.29064 100.26620 23 ft 7 kts 220°
2026-04-23 12:28 5.29014 100.26594 23 ft 9 kts 183°
2026-04-23 12:28 5.28956 100.26630 22 ft 11 kts 133°
2026-04-23 12:29 5.28925 100.26699 22 ft 11 kts 77°
2026-04-23 12:29 5.28976 100.26756 22 ft 11 kts 41°
2026-04-23 12:29 5.29033 100.26807 22 ft 11 kts 42°
2026-04-23 12:29 5.29093 100.26862 22 ft 13 kts 42°
2026-04-23 12:30 5.29162 100.26925 22 ft 14 kts 42°
2026-04-23 12:30 5.29239 100.26994 22 ft 15 kts 42°
2026-04-23 12:30 5.29318 100.27065 22 ft 15 kts 42°
2026-04-23 12:30 5.29404 100.27143 24 ft 18 kts 42°
2026-04-23 12:31 5.29505 100.27234 23 ft 21 kts 42°
2026-04-23 12:31 5.29619 100.27337 23 ft 23 kts 42°
2026-04-23 12:31 5.29746 100.27452 22 ft 25 kts 42°
2026-04-23 12:31 5.29882 100.27575 22 ft 27 kts 42°
2026-04-23 12:32 5.30026 100.27708 22 ft 29 kts 43°
2026-04-23 12:32 5.30172 100.27849 22 ft 28 kts 45°
2026-04-23 12:32 5.30308 100.27984 22 ft 27 kts 45°
2026-04-23 12:32 5.30435 100.28108 22 ft 25 kts 43°
2026-04-23 12:33 5.30559 100.28222 21 ft 23 kts 43°
2026-04-23 12:33 5.30677 100.28329 22 ft 22 kts 43°
2026-04-23 12:33 5.30790 100.28434 22 ft 22 kts 43°
2026-04-23 12:33 5.30898 100.28538 22 ft 21 kts 59°
2026-04-23 12:34 5.30892 100.28622 24 ft 0 kts 123°
2026-04-23 12:36 5.30889 100.28628 24 ft 2 kts 123°
2026-04-23 12:36 5.30863 100.28656 25 ft 9 kts 138°
2026-04-23 12:36 5.30792 100.28660 24 ft 13 kts 213°
2026-04-23 12:37 5.30779 100.28650 25 ft 0 kts 221°
2026-04-23 12:37 5.30599 100.28489 23 ft 77 kts 222°
2026-04-23 12:38 5.29999 100.27941 31 ft 153 kts 222°
2026-04-23 12:38 5.29145 100.27160 526 ft 179 kts 221°
2026-04-23 12:38 5.28275 100.26259 1566 ft 168 kts 228°
2026-04-23 12:38 5.27376 100.25402 2301 ft 191 kts 220°
2026-04-23 12:39 5.26500 100.24280 2522 ft 221 kts 250°
2026-04-23 12:39 5.26524 100.22694 2765 ft 242 kts 292°
2026-04-23 12:39 5.27605 100.21401 3248 ft 248 kts 324°
2026-04-23 12:39 5.29034 100.20395 3815 ft 253 kts 325°
2026-04-23 12:40 5.30481 100.19341 4296 ft 265 kts 324°
2026-04-23 12:40 5.31889 100.18260 4770 ft 277 kts 323°
2026-04-23 12:40 5.33388 100.17063 5558 ft 280 kts 322°
2026-04-23 12:40 5.34899 100.15821 6390 ft 283 kts 321°
2026-04-23 12:41 5.36420 100.14548 7140 ft 286 kts 321°
2026-04-23 12:41 5.37950 100.13252 7907 ft 290 kts 320°